Starlink 31073

operational
NORAD ID: 58773 Int'l Des: 2024-011 Owner: SPXS Country: US Constellation: starlink
LEOCIRCULAR

About Starlink 31073

Description loading...

Live Position

Loading 3D Globe...

Upcoming Passes

Altitude History

Altitude vs Time

uPlot chart will show altitude changes over time

Two-Line Element Set

1 58773U 24011J 25304.13344524 .00000686 00000-0 35304-4 0 9997
2 58773 53.1602 255.5253 0001158 72.1209 287.9918 15.30195069100433
Epoch: Oct 31, 2025 • Age: 13 hours

Current Status

Altitude 478.9 km
Velocity 7.63 km/s
Sub-Earth Point 42.75°N, 105.13°E
Launch Date Jan 14, 2024
Age 1.7 years
Type internet

Technical Details

Classification Payload
Mass 730.00 kg
Dry Mass 700.00 kg
Total Mass 730.00 kg
Length 0.30 m
Diameter 4.10 m
Span 29.00 m
Shape Box + pan
Manufacturer SPXS
Bus Type Starlink V2M
Phase Status In Orbit
Owner/State SPXS/US

Large Constellations

Loading constellations...